TimeCDT,TemperatureF,Dew PointF,Humidity,Sea Level PressureIn,VisibilityMPH,Wind Direction,Wind SpeedMPH,Gust SpeedMPH,PrecipitationIn,Events,Conditions,WindDirDegrees,DateUTC
12:49 AM,57.2,35.6,44,30.26,10.0,SW,5.8,-,N/A,,Clear,220,2012-10-08 05:49:00
1:43 AM,53.6,33.8,47,30.28,10.0,West,6.9,-,N/A,,Clear,280,2012-10-08 06:43:00
2:45 AM,51.8,35.6,54,30.28,10.0,Calm,Calm,-,N/A,,Clear,0,2012-10-08 07:45:00
3:48 AM,48.2,33.8,58,30.28,10.0,Calm,Calm,-,N/A,,Clear,0,2012-10-08 08:48:00
5:27 AM,44.6,33.8,66,30.28,10.0,Calm,Calm,-,N/A,,Clear,0,2012-10-08 10:27:00
5:54 AM,44.6,33.8,66,30.28,10.0,East,3.5,-,N/A,,Clear,100,2012-10-08 10:54:00
6:47 AM,44.6,33.8,66,30.28,10.0,Calm,Calm,-,N/A,,Clear,0,2012-10-08 11:47:00
7:44 AM,42.8,32.0,66,30.29,10.0,Calm,Calm,-,N/A,,Clear,0,2012-10-08 12:44:00
8:43 AM,48.2,37.4,66,30.31,10.0,Calm,Calm,-,N/A,,Clear,0,2012-10-08 13:43:00
9:42 AM,59.0,44.6,59,30.34,10.0,Calm,Calm,-,N/A,,Clear,0,2012-10-08 14:42:00
10:43 AM,66.2,46.4,49,30.35,10.0,SW,4.6,-,N/A,,Clear,220,2012-10-08 15:43:00
11:43 AM,71.6,46.4,41,30.34,10.0,SW,4.6,-,N/A,,Clear,230,2012-10-08 16:43:00
12:43 PM,75.2,44.6,34,30.32,10.0,Calm,Calm,-,N/A,,Partly Cloudy,0,2012-10-08 17:43:00
1:43 PM,80.6,42.8,26,30.30,10.0,ESE,8.1,-,N/A,,Scattered Clouds,110,2012-10-08 18:43:00
2:40 PM,77.0,39.2,26,30.28,10.0,NE,8.1,-,N/A,,Scattered Clouds,40,2012-10-08 19:40:00
3:50 PM,82.4,39.2,21,30.25,10.0,SE,9.2,-,N/A,,Mostly Cloudy,130,2012-10-08 20:50:00
4:45 PM,80.6,39.2,23,30.24,10.0,NNE,3.5,-,N/A,,Mostly Cloudy,20,2012-10-08 21:45:00
5:41 PM,77.0,37.4,24,30.24,10.0,ENE,9.2,-,N/A,,Mostly Cloudy,60,2012-10-08 22:41:00
6:40 PM,75.2,35.6,24,30.24,10.0,East,8.1,-,N/A,,Scattered Clouds,100,2012-10-08 23:40:00
7:40 PM,68.0,33.8,28,30.25,10.0,East,4.6,-,N/A,,Scattered Clouds,90,2012-10-09 00:40:00
8:57 PM,60.8,32.0,34,30.28,10.0,East,9.2,-,N/A,,Scattered Clouds,100,2012-10-09 01:57:00
9:46 PM,62.6,33.8,34,30.28,10.0,SE,4.6,-,N/A,,Scattered Clouds,140,2012-10-09 02:46:00
10:45 PM,60.8,37.4,42,30.30,10.0,SE,10.4,-,N/A,,Scattered Clouds,140,2012-10-09 03:45:00
11:44 PM,59.0,39.2,48,30.31,10.0,SSW,8.1,-,N/A,,Clear,210,2012-10-09 04:44:00